Weather History for Pompano Beach, FL

Change the Weather History Date:

Sunday, January 20, 2013

  Actual Average Record
Temperature  
Mean Temperature 70 °F -  
Max Temperature 77 °F 77 °F 86 °F (1975)
Min Temperature 64 °F 57 °F 29 °F (1977)
Cooling Degree Days 6    
Growing Degree Days 20 (Base 50)    
Moisture  
Dew Point 67 °F    
Average Humidity 94    
Maximum Humidity 100    
Minimum Humidity 66    
Precipitation  
Precipitation 0.81 in - - ()
Sea Level Pressure  
Sea Level Pressure 30.09 in    
Wind  
Wind Speed 3 mph (NNW)    
Max Wind Speed 13 mph    
Max Gust Speed -    
Visibility 5 miles    
Events Fog , Rain    
Averages and records for this station are not official NWS values.
T = Trace of Precipitation, MM = Missing Value Source: NWS Daily Summary

Daily Weather History Graph

Daily Weather History Graph

Search for Another Location

Airport:

Trip Planner

Search our weather history database for the weather conditions in past years. The results will help you decide how hot, cold, wet, or windy it might be!

Date:

Astronomy

Jan. 20, 2013 Rise Set
Actual Time 7:08 AM EST 5:54 PM EST
Civil Twilight 6:44 AM EST 6:19 PM EST
Nautical Twilight 6:16 AM EST 6:47 PM EST
Astronomical Twilight 5:48 AM EST 7:14 PM EST
Moon 12:53 PM EST (1/20) 1:43 AM EST (1/20)
Length of Visible Light 11h 34m
Length of Day
10h 45m
Waxing Gibbous, 66% of the Moon is Illuminated
Jan 20
Waxing Gibbous
Jan 26
Full
Feb 3
Last Quarter
Feb 10
New
Feb 17
First Quarter

Hourly Weather History & Observations

Time (EST) Temp. Dew Point Humidity Pressure Visibility Wind Dir Wind Speed Gust Speed Precip Events Conditions
12:45 AM 66.2 °F 66.2 °F 100% 30.10 in 4.0 mi Calm Calm - 0.01 in   Mostly Cloudy
12:50 AM 66.2 °F 66.2 °F 100% 30.10 in 1.8 mi NW 3.5 mph - 0.01 in   Mostly Cloudy
12:53 AM 66.9 °F 66.0 °F 97% 30.11 in 1.0 mi NW 3.5 mph - 0.01 in   Mostly Cloudy
12:57 AM 66.2 °F 66.2 °F 100% 30.10 in 0.5 mi NW 4.6 mph - N/A Fog Fog
1:53 AM 66.0 °F 66.0 °F 100% 30.10 in 0.2 mi Calm Calm - N/A Fog Fog
2:53 AM 64.9 °F 64.9 °F 100% 30.08 in 0.2 mi NW 3.5 mph - N/A Fog Fog
3:53 AM 64.0 °F 64.0 °F 100% 30.08 in 0.5 mi WNW 3.5 mph - N/A Fog Fog
4:00 AM 64.4 °F 64.4 °F 100% 30.07 in 1.0 mi Calm Calm - N/A   Mist
4:08 AM 64.4 °F 64.4 °F 100% 30.07 in 0.5 mi Calm Calm - N/A Fog Fog
4:53 AM 64.0 °F 64.0 °F 100% 30.08 in 0.5 mi Calm Calm - N/A Fog Fog
4:58 AM 64.4 °F 64.4 °F 100% 30.08 in 0.8 mi Calm Calm - N/A   Overcast
5:07 AM 64.4 °F 64.4 °F 100% 30.08 in 2.0 mi Calm Calm - N/A   Overcast
5:16 AM 64.4 °F 64.4 °F 100% 30.08 in 4.0 mi Calm Calm - N/A   Overcast
5:53 AM 64.9 °F 64.9 °F 100% 30.10 in 8.0 mi West 4.6 mph - N/A   Overcast
6:45 AM 66.2 °F 66.2 °F 100% 30.11 in 7.0 mi WNW 6.9 mph - N/A   Overcast
6:53 AM 66.0 °F 66.0 °F 100% 30.11 in 2.0 mi WNW 4.6 mph - N/A   Overcast
7:00 AM 66.2 °F 66.2 °F 100% 30.11 in 1.0 mi Calm Calm - N/A   Overcast
7:07 AM 66.2 °F 66.2 °F 100% 30.11 in 0.8 mi West 3.5 mph - N/A   Mist
7:15 AM 66.2 °F 66.2 °F 100% 30.11 in 0.5 mi Calm Calm - N/A Fog Fog
7:53 AM 66.0 °F 66.0 °F 100% 30.13 in 0.2 mi WNW 3.5 mph - N/A Fog Fog
8:53 AM 68.0 °F 68.0 °F 100% 30.15 in 0.8 mi NW 3.5 mph - N/A   Mist
9:04 AM 69.8 °F 69.8 °F 100% 30.14 in 2.0 mi NNW 3.5 mph - N/A   Overcast
9:13 AM 69.8 °F 69.8 °F 100% 30.14 in 4.0 mi North 3.5 mph - N/A   Mostly Cloudy
9:24 AM 69.8 °F 69.8 °F 100% 30.15 in 8.0 mi North 3.5 mph - N/A   Scattered Clouds
9:53 AM 70.0 °F 70.0 °F 100% 30.16 in 10.0 mi Calm Calm - N/A   Clear
10:53 AM 75.0 °F 68.0 °F 79% 30.14 in 10.0 mi West 5.8 mph - N/A   Clear
11:53 AM 77.0 °F 64.9 °F 66% 30.11 in 10.0 mi Calm Calm - N/A   Partly Cloudy
12:53 PM 77.0 °F 66.9 °F 71% 30.07 in 10.0 mi East 6.9 mph - N/A   Partly Cloudy
1:53 PM 75.9 °F 66.0 °F 71% 30.04 in 10.0 mi ENE 8.1 mph - N/A   Scattered Clouds
2:53 PM 75.0 °F 66.9 °F 76% 30.03 in 10.0 mi ENE 8.1 mph - N/A   Mostly Cloudy
4:53 PM 73.9 °F 68.0 °F 82% 30.05 in 10.0 mi ENE 9.2 mph - N/A   Mostly Cloudy
5:53 PM 73.0 °F 66.0 °F 79% 30.05 in 10.0 mi NNE 9.2 mph - N/A   Mostly Cloudy
6:53 PM 73.9 °F 68.0 °F 82% 30.05 in 10.0 mi NNE 5.8 mph - N/A   Overcast
7:53 PM 73.0 °F 66.9 °F 81% 30.06 in 10.0 mi NE 6.9 mph - N/A   Overcast
8:53 PM 72.0 °F 68.0 °F 87% 30.06 in 10.0 mi North 6.9 mph - N/A   Overcast
9:33 PM 71.6 °F 69.8 °F 94% 30.07 in 6.0 mi South 8.1 mph - 0.02 in Rain Rain
9:38 PM 71.6 °F 69.8 °F 94% 30.08 in 1.8 mi Variable 3.5 mph - 0.13 in Rain Heavy Rain
9:53 PM 70.0 °F 66.9 °F 90% 30.08 in 1.2 mi Variable 3.5 mph - 0.38 in Rain Heavy Rain
10:01 PM 69.8 °F 69.8 °F 100% 30.08 in 3.0 mi North 4.6 mph - 0.01 in Rain Light Rain
10:12 PM 69.8 °F 68.0 °F 94% 30.08 in 1.8 mi Calm Calm - 0.14 in Rain Heavy Rain
10:26 PM 69.8 °F 69.8 °F 100% 30.07 in 2.0 mi NE 12.7 mph - 0.40 in Rain Heavy Rain
10:37 PM 69.8 °F 69.8 °F 100% 30.07 in 6.0 mi NE 8.1 mph - 0.41 in Rain Light Rain
10:53 PM 69.1 °F 69.1 °F 100% 30.07 in 10.0 mi NNE 5.8 mph - 0.41 in   Overcast
11:53 PM 69.1 °F 69.1 °F 100% 30.06 in 10.0 mi NNW 5.8 mph - 0.01 in   Scattered Clouds